This demonstration page uses our WeatherBlox Daily Observations layout. Learn more.

Left ArrowRight Arrow

Hourly Observations for January 25, 2022

Temp ( °F °C ) Dew Point ( °F °C ) Humidity (%) Winds ( mph kmh ) Pressure ( in mb ) Visibility ( mi km ) Precip ( " mm )
12:54 am 00:54 Clear 0 -17.8 -2 -18.9 91 91 W 6 9 29.93 1013 10 16 0.00 0.00
1:31 am 01:31 Mostly Cloudy -3 -19.4 -8 -22.2 79 79 W 5 7 29.99 1016 9 14 0.00 0.00
1:54 am 01:54 Cloudy 3 -16.1 -1 -18.3 83 83 WNW 7 11 29.94 1014 10 16 0.00 0.00
2:44 am 02:44 Cloudy with Light Snow 10 -12.2 6 -14.4 84 84 NNW 9 15 29.99 1015 4 6 0.00 0.00
2:54 am 02:54 Cloudy with Light Snow 10 -12.2 6 -14.4 84 84 NNW 8 13 29.96 1015 4 6 0.00 0.00
3:54 am 03:54 Cloudy 9 -12.8 5 -15 84 84 NW 6 9 29.99 1016 8 13 0.00 0.00
4:54 am 04:54 Cloudy 8 -13.3 4 -15.6 83 83 NE 6 9 30.01 1016 10 16 0.00 0.00
5:40 am 05:40 Cloudy 3 -16.1 0 -17.8 87 87 NNE 3 6 30.07 1018 8 13 0.00 0.00
5:54 am 05:54 Mostly Cloudy 1 -17.2 -3 -19.4 83 83 Calm 30.04 1017 8 13 0.00 0.00
6:03 am 06:03 Partly Cloudy 0 -17.8 -4 -20 83 83 Calm 30.08 1019 10 16 0.00 0.00
6:54 am 06:54 Mostly Cloudy 0 -17.8 -4 -20 83 83 Calm 30.08 1019 10 16 0.00 0.00
7:54 am 07:54 Mostly Cloudy -4 -20 -8 -22.2 83 83 Calm 30.11 1020 10 16 0.00 0.00
8:54 am 08:54 Partly Cloudy -9 -22.8 -13 -25 82 82 Calm 30.14 1021 10 16 0.00 0.00
9:21 am 09:21 Partly Cloudy with Mist and Fog -4 -20 -8 -22.2 83 83 Calm 30.18 1022 2 3 0.00 0.00
9:24 am 09:24 Partly Cloudy with Mist and Fog -4 -20 -8 -22.2 83 83 Calm 30.19 1022 3 5 0.00 0.00
9:54 am 09:54 Sunny -4 -20 -7 -21.7 86 86 Calm 30.16 1021 10 16 0.00 0.00
10:54 am 10:54 Sunny 5 -15 -1 -18.3 76 76 Calm 30.17 1022 10 16 0.00 0.00
11:54 am 11:54 Sunny 11 -11.7 1 -17.2 64 64 Calm 30.17 1022 10 16 0.00 0.00
12:54 pm 12:54 Cloudy 13 -10.6 1 -17.2 59 59 NW 5 7 30.15 1021 10 16 0.00 0.00
1:54 pm 13:54 Cloudy 13 -10.6 -1 -18.3 54 54 NW 6 9 30.16 1021 10 16 0.00 0.00
2:54 pm 14:54 Cloudy 13 -10.6 -1 -18.3 54 54 WNW 6 9 30.16 1021 10 16 0.00 0.00
3:54 pm 15:54 Cloudy 13 -10.6 0 -17.8 56 56 NW 5 7 30.19 1022 10 16 0.00 0.00
4:54 pm 16:54 Cloudy 13 -10.6 0 -17.8 56 56 NW 8 13 30.21 1023 10 16 0.00 0.00
5:54 pm 17:54 Cloudy 10 -12.2 4 -15.6 76 76 N 3 6 30.22 1024 9 14 0.00 0.00
6:54 pm 18:54 Cloudy 8 -13.3 2 -16.7 76 76 NW 6 9 30.25 1025 10 16 0.00 0.00
7:54 pm 19:54 Cloudy 8 -13.3 -1 -18.3 66 66 NW 9 15 30.27 1025 10 16 0.00 0.00
8:54 pm 20:54 Cloudy 8 -13.3 1 -17.2 73 73 NW 9 15 30.29 1026 10 16 0.00 0.00
9:54 pm 21:54 Cloudy 5 -15 0 -17.8 79 79 WNW 7 11 30.31 1026 10 16 0.00 0.00
10:54 pm 22:54 Cloudy 4 -15.6 0 -17.8 83 83 WNW 7 11 30.32 1027 10 16 0.00 0.00
11:54 pm 23:54 Clear 2 -16.7 -1 -18.3 88 88 W 3 6 30.32 1027 10 16 0.00 0.00

Powered by AerisWeather